Other Surface Observations
Issued by NWS

Home | Current Version | Previous Version | Text Only | Print | Product List | Glossary On
Versions: 1 2 3 4 5 6 7 8 9 10 11 12 13 14 15 16 17 18 19 20 21 22 23 24 25 26 27 28 29 30 31 32 33 34 35 36 37 38 39 40 41 42 43 44 45 46 47 48 49 50
000
SXUS52 KTAE 280618
OSOTAE
OSOTAE
North Florida/South Alabama/Southwest Georgia Weather Roundup
National Weather Service Tallahassee Florida
200 AM EDT TUE JUL 28 2015

Note: "fair" indicates few or no clouds below 12,000 feet with no
significant weather and/or obstructions to visibility.

!FLZ017-115-028-034-025-280700
...North Florida...

CITY           SKY/WX    TMP DP  RH WIND       PRES   REMARKS
TALLAHASSEE    CLEAR     79  75  87 CALM      29.95S
APALACHICOLA   PTCLDY    79  75  87 CALM      29.94
PERRY          MOCLDY    76  76 100 CALM      29.95S
CROSS CITY       N/A     77  76  96 CALM      29.93S
JACKSONVILLE   PTCLDY    76  75  97 CALM      29.94S
$$

!FLZ112-006-005-002-011-280700
...Florida Panhandle...

CITY           SKY/WX    TMP DP  RH WIND       PRES   REMARKS
MARIANNA       PTCLDY    78  76  93 N3        29.96
BONIFAY        FAIR      77  75  93 CALM      29.96S
PANAMA CITY NW FAIR      79  73  82 CALM      29.94S
TYNDALL AFB    PTCLDY    81  74  79 NW6       29.94S
TYND DRONE APT FAIR      82  74  78 CALM      29.94R
DE FUNIAK SPR  CLOUDY    80  71  75 NW5       29.97S
EGLIN AFB      CLEAR     81  72  72 NW3       29.95S
DESTIN         PTCLDY    85  73  67 NW3       29.95S HX  91
HURLBURT       CLEAR     81  71  73 N5        29.94S
CRESTVIEW      CLEAR     75  72  90 CALM      29.97S
PENSACOLA      CLEAR     82  74  76 W7        29.95S
$$

!ALZ063-066-280700
...South Alabama...

CITY           SKY/WX    TMP DP  RH WIND       PRES   REMARKS
DOTHAN         PTCLDY    81  74  79 CALM      30.00S
OZARK CAIRNS   PTCLDY    79  74  87 NW6       29.96S
FT RUCKER HELI PTCLDY    78  73  84 N5        29.96R
RUCKER HELI 3  FAIR      77  73  88 N1        29.98S
RUCKER HELI 2  MOCLDY    76  76 100 CALM      29.96S
FLORALA APT    CLEAR     75  72  90 CALM      29.98F
ANDALUSIA      CLEAR     81  73  76 CALM      29.96F
TROY           CLEAR     75  73  93 CALM      29.98S FOG
EUFALA         FAIR      77  74  90 CALM      29.96S
MOBILE         PTCLDY    77  74  90 W3        29.98S
$$

!GAZ120>161-280700
...Southwest and South Central Georgia...

CITY           SKY/WX    TMP DP  RH WIND       PRES   REMARKS
THOMASVILLE    FAIR      73  73 100 CALM      29.97S
BAINBRIDGE     CLEAR     81  77  89 CALM      29.97R
MOODY AFB      CLEAR     76  74  94 CALM      29.95S
VALDOSTA       CLEAR     75  75 100 CALM      29.96R
MOULTRIE       CLEAR     77  73  88 CALM      29.98R
BLAKELY        PTCLDY    77  75  94 CALM      29.97S
ALBANY         PTCLDY    78  73  84 CALM      29.98F
TIFTON         FAIR      75  74  97 CALM      29.97S
FITZGERALD     CLOUDY    76  75  96 CALM      29.99F
CORDELE        FAIR      78  76  92 CALM      29.99S
AMERICUS       FAIR      77  73  88 SW3       30.00R
HOMERVILLE     FAIR      77  77 100 CALM      29.96F
$$

!GMZ750-755-770-775-280700
...Coastal and Buoy Obs...

STATION/POSITION TIME  TEMP    WIND        PRES    VSBY  WAVE
                       AIR SEA DIR/SP/G                  HT/PER
                 (UTC) (F)     (DEG/KT/KT) (MB)    (MI)  (FT/S)
KEATON BEACH     0600   77      40/  3/  4 1013.9F
CEDAR KEY        0600   80     110/  6/  7 1013.6F
C TOWER          0600   85     300/ 12/ 13 1013.6F
APALACHICOLA BUO 0550   84 85  350/ 12/ 16 1013.4F         2/ 3
PANAMA CITY BUOY 0550   86 87  280/  8/  8 1014.6R         1/ 5
MOBILE BUOY      0550   85 87  290/  4/  6 1014.8F         1
ORANGE BCH AL BU 0550   85 84  290/  8/  8 1013.6F         1
$$



USA.gov is the U.S. government's official web portal to all federal, state and local government web resources and services.